Hill City, KS

5:02 PM CDT on May 26, 2018 (GMT -0500)
Hill City Municipal

Weather History for KHLC - December, 2013

Change the Weather History Date:

Tuesday, December 17, 2013

  Actual Average Record
Temperature  
Mean Temperature 38 °F 30 °F  
Max Temperature 53 °F 42 °F 79 °F (1939)
Min Temperature 22 °F 17 °F -12 °F (2016)
Degree Days  
Heating Degree Days 27    
Moisture  
Dew Point 21 °F    
Average Humidity 55    
Maximum Humidity 88    
Minimum Humidity 30    
Precipitation  
Precipitation 0.00 in 0.01 in 0.26 in (1999)
Month to date precipitation T 0.47  
Year to date precipitation 17.56 22.70  
Sea Level Pressure  
Sea Level Pressure 30.28 in    
Wind  
Wind Speed 8 mph (WSW)    
Max Wind Speed 15 mph    
Max Gust Speed -    
Visibility 10 miles    
Events      
T = Trace of Precipitation, MM = Missing Value Source: NWS Daily Summary

Daily Weather History Graph

Daily Weather History Graph

Search for Another Location

Airport or City:

Astronomy

Dec. 17, 2013 Rise Set
Actual Time 7:53 AM CST 5:17 PM CST
Civil Twilight 7:23 AM CST 5:47 PM CST
Nautical Twilight 6:49 AM CST 6:21 PM CST
Astronomical Twilight 6:16 AM CST 6:54 PM CST
Moon 5:58 PM CST (12/17) 7:51 AM CST (12/17)
Length of Visible Light 10h 24m
Length of Day
9h 23m
Full, 100% of the Moon is Illuminated
Dec 17
Full
Dec 25
Last Quarter
Jan 1
New
Jan 7
First Quarter
Jan 15
Full

Hourly Weather History & Observations

Time (CST) Temp. Windchill Dew Point Humidity Pressure Visibility Wind Dir Wind Speed Gust Speed Precip Events Conditions
12:53 AM 37.9 °F 29.2 °F 19.9 °F 48% 30.18 in 10.0 mi NNW 15.0 mph - N/A   Clear
1:53 AM 32.0 °F 27.5 °F 19.9 °F 61% 30.22 in 10.0 mi North 4.6 mph - N/A   Clear
2:53 AM 27.0 °F 21.6 °F 19.9 °F 75% 30.25 in 10.0 mi NW 4.6 mph - N/A   Clear
3:53 AM 24.1 °F 17.0 °F 19.0 °F 81% 30.27 in 10.0 mi WNW 5.8 mph - N/A   Clear
4:53 AM 24.1 °F 16.0 °F 19.9 °F 84% 30.29 in 10.0 mi NW 6.9 mph - N/A   Clear
5:53 AM 24.1 °F 16.0 °F 19.9 °F 84% 30.34 in 10.0 mi WNW 6.9 mph - N/A   Clear
6:53 AM 23.0 °F 14.7 °F 19.9 °F 88% 30.36 in 10.0 mi West 6.9 mph - N/A   Clear
7:53 AM 24.1 °F 15.2 °F 19.9 °F 84% 30.40 in 10.0 mi West 8.1 mph - N/A   Clear
8:53 AM 27.0 °F 18.0 °F 21.0 °F 78% 30.41 in 10.0 mi West 9.2 mph - N/A   Clear
9:53 AM 36.0 °F 31.1 °F 25.0 °F 64% 30.41 in 10.0 mi West 5.8 mph - N/A   Clear
10:53 AM 48.0 °F - 26.1 °F 42% 30.41 in 10.0 mi NNW 8.1 mph - N/A   Clear
11:53 AM 48.9 °F - 23.0 °F 36% 30.38 in 10.0 mi North 6.9 mph - N/A   Clear
12:53 PM 52.0 °F - 23.0 °F 32% 30.34 in 10.0 mi Variable 4.6 mph - N/A   Clear
1:53 PM 51.1 °F - 21.0 °F 31% 30.32 in 10.0 mi SSE 4.6 mph - N/A   Clear
2:53 PM 52.0 °F - 21.0 °F 30% 30.30 in 10.0 mi South 4.6 mph - N/A   Clear
3:53 PM 53.1 °F - 21.9 °F 30% 30.28 in 10.0 mi SSW 9.2 mph - N/A   Clear
4:53 PM 48.9 °F - 23.0 °F 36% 30.27 in 10.0 mi SSE 8.1 mph - N/A   Clear
5:53 PM 42.1 °F 40.2 °F 21.9 °F 45% 30.28 in 10.0 mi South 3.5 mph - N/A   Clear
6:53 PM 39.0 °F 35.7 °F 21.0 °F 49% 30.26 in 10.0 mi SSW 4.6 mph - N/A   Clear
7:53 PM 39.9 °F 33.4 °F 21.9 °F 49% 30.23 in 10.0 mi SSW 10.4 mph - N/A   Clear
8:53 PM 39.0 °F 31.4 °F 21.9 °F 50% 30.21 in 10.0 mi SSW 12.7 mph - N/A   Clear
9:53 PM 39.9 °F 31.8 °F 21.0 °F 47% 30.18 in 10.0 mi SW 15.0 mph - N/A   Clear
10:53 PM 42.1 °F 36.6 °F 21.9 °F 45% 30.14 in 10.0 mi West 9.2 mph - N/A   Clear
11:53 PM 41.0 °F 34.7 °F 21.0 °F 45% 30.11 in 10.0 mi SW 10.4 mph - N/A   Clear